N804QS KASE-MBPV

Flight info

Callsign N804QS
Flight time N/A
Altitude 41000
Route LINDZ DCT KEEPP DCT CLIMN DCT MROON DCT HBU DCT ALS DCT PUB DCT LAA DCT GCK DCT PER DCT RZC DCT MEM J41 GOOGY Q116 LOBBS J41 VUZ DCT OTK DCT OMN DCT TRV DCT ZFP BR65V ZQA A555 BTLER L463 PVN
Aircraft C700/M-SBDGHM1RWXY/LB2

Departure

Time 2026-04-11 11:36
Airport Aspen-Pitkin County Airport (Sardy Field) (KASE)

Arrival

Time N/A
Airport Providenciales International Airport (MBPV)
Time Latitude Longitude Altitude Speed Heading
2026-04-11 11:13 39.22190 -106.86548 7765 ft 0 kts 252°
2026-04-11 11:31 39.22190 -106.86549 7769 ft 0 kts 253°
2026-04-11 11:32 39.22174 -106.86571 7767 ft 7 kts 204°
2026-04-11 11:32 39.22113 -106.86594 7773 ft 11 kts 195°
2026-04-11 11:32 39.22027 -106.86612 7778 ft 14 kts 173°
2026-04-11 11:32 39.21929 -106.86580 7781 ft 14 kts 161°
2026-04-11 11:33 39.21857 -106.86546 7786 ft 9 kts 160°
2026-04-11 11:33 39.21834 -106.86535 7794 ft 0 kts 160°
2026-04-11 11:33 39.21815 -106.86527 7791 ft 11 kts 159°
2026-04-11 11:33 39.21711 -106.86478 7803 ft 19 kts 160°
2026-04-11 11:34 39.21566 -106.86407 7814 ft 25 kts 159°
2026-04-11 11:34 39.21385 -106.86321 7828 ft 30 kts 161°
2026-04-11 11:34 39.21226 -106.86251 7837 ft 14 kts 182°
2026-04-11 11:34 39.21177 -106.86320 7841 ft 11 kts 272°
2026-04-11 11:35 39.21254 -106.86378 7835 ft 30 kts 339°
2026-04-11 11:35 39.21502 -106.86496 7821 ft 84 kts 340°
2026-04-11 11:35 39.22668 -106.87051 7729 ft 177 kts 340°
2026-04-11 11:35 39.23932 -106.87684 7973 ft 209 kts 338°
2026-04-11 11:36 39.25373 -106.88464 8668 ft 238 kts 335°
2026-04-11 11:36 39.26425 -106.89079 9311 ft 252 kts 335°
2026-04-11 11:36 39.28128 -106.90148 9809 ft 284 kts 333°
2026-04-11 11:36 39.29828 -106.91233 11276 ft 264 kts 332°
2026-04-11 11:37 39.31574 -106.92262 12234 ft 289 kts 332°
2026-04-11 11:37 39.33512 -106.93344 12969 ft 318 kts 333°
2026-04-11 11:37 39.35577 -106.94578 13924 ft 328 kts 322°
2026-04-11 11:37 39.37128 -106.96637 15225 ft 318 kts 296°
2026-04-11 11:38 39.37982 -106.99263 16342 ft 318 kts 282°
2026-04-11 11:38 39.38365 -107.02065 17489 ft 317 kts 264°
2026-04-11 11:38 39.37690 -107.04729 18644 ft 316 kts 236°
2026-04-11 11:38 39.36169 -107.06796 19626 ft 322 kts 219°
2026-04-11 11:39 39.34193 -107.08201 20636 ft 328 kts 205°
2026-04-11 11:39 39.32060 -107.09309 21597 ft 333 kts 204°
2026-04-11 11:39 39.29919 -107.10510 22505 ft 338 kts 207°
2026-04-11 11:39 39.27821 -107.11906 23483 ft 341 kts 209°
2026-04-11 11:40 39.25703 -107.13322 24258 ft 345 kts 207°
2026-04-11 11:40 39.23517 -107.14650 25016 ft 349 kts 204°
2026-04-11 11:40 39.21188 -107.15604 25816 ft 354 kts 196°
2026-04-11 11:40 39.18740 -107.16124 26590 ft 360 kts 188°
2026-04-11 11:41 39.16215 -107.16174 27331 ft 366 kts 181°
2026-04-11 11:41 39.13660 -107.15775 27992 ft 373 kts 176°
2026-04-11 11:41 39.11074 -107.15309 28691 ft 376 kts 177°
2026-04-11 11:41 39.08466 -107.14872 29368 ft 380 kts 177°
2026-04-11 11:42 39.05832 -107.14423 30048 ft 384 kts 177°
2026-04-11 11:42 39.03221 -107.13961 30560 ft 387 kts 176°
2026-04-11 11:42 39.00492 -107.13481 31165 ft 390 kts 177°
2026-04-11 11:42 38.97792 -107.13018 31717 ft 393 kts 177°
2026-04-11 11:43 38.95108 -107.12555 32235 ft 396 kts 177°
2026-04-11 11:43 38.92363 -107.12080 32782 ft 399 kts 177°
2026-04-11 11:43 38.89569 -107.11593 33381 ft 400 kts 177°
2026-04-11 11:43 38.86858 -107.11122 34136 ft 397 kts 177°
2026-04-11 11:44 38.84130 -107.10653 34774 ft 395 kts 177°
2026-04-11 11:44 38.81410 -107.10185 35360 ft 394 kts 178°
2026-04-11 11:44 38.78662 -107.09710 35983 ft 392 kts 178°
2026-04-11 11:44 38.75997 -107.09251 36564 ft 390 kts 178°
2026-04-11 11:45 38.73311 -107.08789 37124 ft 389 kts 178°
2026-04-11 11:45 38.70627 -107.08326 37703 ft 388 kts 179°
2026-04-11 11:45 38.67953 -107.07866 38216 ft 387 kts 179°
2026-04-11 11:45 38.65290 -107.07409 38751 ft 386 kts 179°
2026-04-11 11:46 38.62628 -107.06937 39185 ft 387 kts 177°
2026-04-11 11:46 38.59980 -107.06132 39555 ft 396 kts 171°
2026-04-11 11:46 38.57374 -107.04894 39938 ft 404 kts 163°
2026-04-11 11:46 38.54856 -107.03218 40288 ft 412 kts 157°
2026-04-11 11:47 38.52481 -107.01105 40629 ft 421 kts 149°
2026-04-11 11:47 38.50292 -106.98562 40975 ft 430 kts 142°
2026-04-11 11:47 38.48345 -106.95609 41327 ft 439 kts 134°
2026-04-11 11:47 38.46695 -106.92283 41654 ft 448 kts 126°
2026-04-11 11:48 38.45396 -106.88631 41975 ft 457 kts 117°
2026-04-11 11:48 38.44489 -106.84713 42203 ft 467 kts 108°
2026-04-11 11:48 38.44025 -106.80548 42190 ft 482 kts 99°
2026-04-11 11:48 38.43815 -106.76234 42179 ft 491 kts 99°
2026-04-11 11:49 38.43351 -106.67438 42145 ft 501 kts 99°
2026-04-11 11:49 38.42887 -106.58522 42095 ft 507 kts 98°
2026-04-11 11:50 38.42398 -106.49486 42045 ft 513 kts 99°
2026-04-11 11:50 38.41905 -106.40347 42079 ft 518 kts 98°
2026-04-11 11:51 38.41397 -106.31151 42115 ft 521 kts 98°
2026-04-11 11:51 38.40884 -106.21950 42149 ft 520 kts 98°
2026-04-11 11:52 38.40363 -106.12770 42162 ft 518 kts 99°
2026-04-11 11:52 38.39839 -106.03644 42160 ft 515 kts 99°
2026-04-11 11:53 38.39307 -105.94527 42138 ft 516 kts 98°
2026-04-11 11:53 38.38769 -105.85427 42120 ft 515 kts 99°
2026-04-11 11:54 38.38220 -105.76277 42083 ft 520 kts 99°
2026-04-11 11:54 38.37669 -105.67115 42046 ft 517 kts 99°
2026-04-11 11:55 38.37106 -105.58019 42036 ft 515 kts 99°
2026-04-11 11:55 38.36541 -105.48899 42041 ft 518 kts 99°
2026-04-11 11:56 38.35962 -105.39712 42045 ft 522 kts 99°
2026-04-11 11:56 38.35374 -105.30478 42059 ft 522 kts 99°
2026-04-11 11:57 38.34779 -105.21270 42058 ft 521 kts 99°
2026-04-11 11:57 38.34178 -105.12080 42060 ft 520 kts 99°
2026-04-11 11:58 38.33570 -105.02888 42061 ft 522 kts 99°
2026-04-11 11:58 38.32952 -104.93664 42059 ft 523 kts 99°
2026-04-11 11:59 38.32326 -104.84415 42062 ft 525 kts 99°
2026-04-11 11:59 38.31691 -104.75147 42071 ft 526 kts 99°
2026-04-11 12:00 38.31046 -104.65848 42081 ft 528 kts 99°
2026-04-11 12:00 38.30392 -104.56520 42084 ft 529 kts 99°
2026-04-11 12:01 38.29730 -104.47181 42092 ft 529 kts 99°
2026-04-11 12:01 38.29189 -104.37911 42087 ft 527 kts 97°
2026-04-11 12:02 38.28724 -104.28618 42069 ft 525 kts 97°
2026-04-11 12:02 38.28259 -104.19264 42058 ft 527 kts 97°
2026-04-11 12:03 38.27788 -104.10007 42047 ft 529 kts 97°
2026-04-11 12:03 38.27307 -104.00655 42043 ft 530 kts 97°
2026-04-11 12:04 38.26819 -103.91318 42039 ft 527 kts 97°
2026-04-11 12:04 38.26324 -103.82024 42045 ft 525 kts 97°
2026-04-11 12:05 38.25826 -103.72769 42056 ft 523 kts 97°
2026-04-11 12:05 38.25317 -103.63505 42054 ft 525 kts 97°
2026-04-11 12:06 38.24802 -103.54214 42059 ft 527 kts 97°
2026-04-11 12:06 38.24278 -103.44902 42053 ft 527 kts 97°
2026-04-11 12:07 38.23748 -103.35616 42056 ft 524 kts 97°
2026-04-11 12:07 38.23214 -103.26394 42043 ft 522 kts 98°
2026-04-11 12:08 38.22671 -103.17167 42032 ft 524 kts 98°
2026-04-11 12:08 38.22120 -103.07895 42027 ft 527 kts 98°
2026-04-11 12:09 38.21559 -102.98578 42040 ft 528 kts 98°
2026-04-11 12:09 38.20992 -102.89291 42054 ft 526 kts 98°
2026-04-11 12:10 38.20419 -102.80043 42065 ft 524 kts 98°
2026-04-11 12:10 38.19839 -102.70801 42075 ft 525 kts 98°
2026-04-11 12:11 38.18758 -102.61644 42080 ft 524 kts 104°
2026-04-11 12:11 38.17537 -102.52482 42074 ft 526 kts 103°
2026-04-11 12:12 38.16304 -102.43333 42060 ft 524 kts 104°
2026-04-11 12:12 38.15069 -102.34226 42044 ft 522 kts 103°
2026-04-11 12:13 38.13831 -102.25143 42034 ft 521 kts 103°
2026-04-11 12:13 38.12582 -102.16049 42034 ft 524 kts 103°
2026-04-11 12:14 38.11536 -102.08454 42036 ft 526 kts 103°
2026-04-11 12:14 38.10264 -101.99299 42044 ft 526 kts 103°
2026-04-11 12:15 38.08993 -101.90174 42047 ft 524 kts 103°
2026-04-11 12:15 38.07716 -101.81083 42061 ft 522 kts 103°
2026-04-11 12:16 38.06435 -101.72003 42064 ft 523 kts 104°
2026-04-11 12:16 38.05142 -101.62898 42063 ft 525 kts 104°
2026-04-11 12:17 38.03837 -101.53760 42074 ft 527 kts 104°
2026-04-11 12:17 38.02528 -101.44637 42079 ft 524 kts 104°
2026-04-11 12:18 38.01218 -101.35578 42083 ft 521 kts 104°
2026-04-11 12:19 37.99244 -101.22012 42086 ft 523 kts 104°
2026-04-11 12:19 37.97914 -101.12924 42095 ft 525 kts 104°
2026-04-11 12:20 37.96571 -101.03810 42109 ft 526 kts 104°
2026-04-11 12:20 37.95224 -100.94714 42114 ft 524 kts 104°
2026-04-11 12:21 37.93876 -100.85666 42122 ft 522 kts 104°
2026-04-11 12:21 37.92523 -100.76638 42123 ft 522 kts 104°
2026-04-11 12:22 37.90477 -100.67885 42130 ft 517 kts 116°
2026-04-11 12:22 37.87842 -100.59398 42129 ft 519 kts 115°
2026-04-11 12:23 37.85219 -100.50948 42126 ft 518 kts 116°
2026-04-11 12:23 37.82575 -100.42476 42123 ft 516 kts 115°
2026-04-11 12:24 37.79939 -100.34039 42143 ft 517 kts 116°
2026-04-11 12:24 37.78612 -100.29814 42253 ft 517 kts 115°
2026-04-11 12:24 37.77285 -100.25584 42357 ft 517 kts 115°
2026-04-11 12:25 37.74630 -100.17139 42553 ft 518 kts 115°
2026-04-11 12:25 37.71961 -100.08681 42729 ft 518 kts 115°
2026-04-11 12:26 37.69284 -100.00222 42897 ft 519 kts 115°
2026-04-11 12:26 37.66598 -99.91760 43065 ft 519 kts 115°
2026-04-11 12:27 37.63902 -99.83291 43228 ft 520 kts 115°
2026-04-11 12:27 37.61199 -99.74826 43380 ft 521 kts 115°
2026-04-11 12:28 37.58483 -99.66343 43525 ft 521 kts 115°
2026-04-11 12:28 37.55760 -99.57866 43679 ft 522 kts 115°
2026-04-11 12:29 37.53032 -99.49399 43824 ft 522 kts 115°
2026-04-11 12:29 37.50293 -99.40921 43977 ft 522 kts 115°
2026-04-11 12:30 37.47548 -99.32450 44123 ft 523 kts 115°
2026-04-11 12:30 37.44789 -99.23961 44139 ft 525 kts 115°
2026-04-11 12:31 37.42020 -99.15462 44141 ft 523 kts 115°
2026-04-11 12:31 37.39262 -99.07029 44146 ft 520 kts 115°
2026-04-11 12:32 37.36515 -98.98649 44143 ft 517 kts 115°
2026-04-11 12:32 37.33762 -98.90279 44154 ft 519 kts 115°
2026-04-11 12:33 37.30997 -98.81889 44157 ft 521 kts 115°
2026-04-11 12:33 37.28212 -98.73472 44157 ft 521 kts 115°
2026-04-11 12:34 37.25434 -98.65091 44150 ft 518 kts 115°
2026-04-11 12:34 37.22663 -98.56764 44154 ft 516 kts 115°
2026-04-11 12:35 37.19891 -98.48451 44154 ft 517 kts 115°
2026-04-11 12:35 37.17101 -98.40112 44165 ft 519 kts 115°
2026-04-11 12:36 37.14294 -98.31744 44174 ft 521 kts 115°
2026-04-11 12:36 37.11476 -98.23364 44183 ft 521 kts 115°
2026-04-11 12:37 37.08658 -98.15012 44183 ft 520 kts 115°
2026-04-11 12:37 37.05842 -98.06687 44186 ft 518 kts 115°
2026-04-11 12:38 37.03045 -97.98443 44181 ft 517 kts 115°
2026-04-11 12:38 37.00219 -97.90135 44174 ft 519 kts 116°
2026-04-11 12:39 36.97379 -97.81812 44165 ft 521 kts 115°
2026-04-11 12:39 36.94522 -97.73460 44160 ft 523 kts 116°
2026-04-11 12:40 36.91653 -97.65096 44173 ft 523 kts 116°
2026-04-11 12:40 36.88784 -97.56756 44185 ft 521 kts 116°
2026-04-11 12:41 36.85916 -97.48444 44196 ft 519 kts 116°
2026-04-11 12:41 36.83053 -97.40167 44206 ft 520 kts 116°
2026-04-11 12:42 36.80172 -97.31861 44204 ft 523 kts 116°
2026-04-11 12:42 36.77273 -97.23527 44203 ft 525 kts 116°
2026-04-11 12:43 36.73823 -97.10567 44204 ft 529 kts 101°
2026-04-11 12:43 36.72470 -97.01567 44207 ft 527 kts 102°
2026-04-11 12:44 36.71094 -96.92607 44205 ft 526 kts 102°
2026-04-11 12:44 36.69730 -96.83670 44201 ft 525 kts 102°
2026-04-11 12:45 36.68346 -96.74724 44203 ft 526 kts 102°
2026-04-11 12:45 36.66960 -96.65759 44208 ft 528 kts 102°
2026-04-11 12:46 36.65556 -96.56759 44215 ft 530 kts 102°
2026-04-11 12:46 36.64144 -96.47741 44225 ft 530 kts 102°
2026-04-11 12:47 36.62728 -96.38742 44230 ft 529 kts 102°
2026-04-11 12:47 36.61308 -96.29768 44234 ft 527 kts 102°
2026-04-11 12:48 36.59885 -96.20822 44238 ft 526 kts 102°
2026-04-11 12:48 36.58456 -96.11882 44239 ft 528 kts 102°
2026-04-11 12:49 36.57012 -96.02893 44242 ft 530 kts 102°
2026-04-11 12:49 36.55556 -95.93877 44242 ft 532 kts 102°
2026-04-11 12:50 36.54093 -95.84857 44242 ft 531 kts 102°
2026-04-11 12:50 36.52627 -95.75869 44241 ft 529 kts 102°
2026-04-11 12:51 36.51158 -95.66905 44242 ft 528 kts 102°
2026-04-11 12:51 36.49695 -95.58018 44249 ft 528 kts 102°
2026-04-11 12:52 36.48210 -95.49050 44246 ft 531 kts 102°
2026-04-11 12:52 36.46957 -95.41514 44249 ft 533 kts 102°
2026-04-11 12:53 36.45449 -95.32488 44252 ft 533 kts 102°
2026-04-11 12:53 36.43940 -95.23492 44250 ft 531 kts 102°
2026-04-11 12:54 36.42428 -95.14527 44247 ft 530 kts 102°
2026-04-11 12:54 36.40913 -95.05583 44255 ft 528 kts 102°
2026-04-11 12:55 36.39393 -94.96658 44257 ft 530 kts 102°
2026-04-11 12:55 36.37858 -94.87689 44264 ft 532 kts 102°
2026-04-11 12:56 36.36313 -94.78697 44271 ft 534 kts 103°
2026-04-11 12:56 36.34759 -94.69698 44285 ft 532 kts 103°
2026-04-11 12:57 36.33205 -94.60740 44293 ft 530 kts 103°
2026-04-11 12:57 36.31657 -94.51863 44295 ft 529 kts 103°
2026-04-11 12:58 36.30099 -94.42970 44289 ft 528 kts 103°
2026-04-11 12:58 36.28529 -94.34046 44290 ft 531 kts 103°
2026-04-11 12:59 36.26945 -94.25086 44294 ft 533 kts 103°
2026-04-11 12:59 36.25349 -94.16099 44321 ft 534 kts 103°
2026-04-11 13:00 36.23315 -94.07308 44307 ft 529 kts 111°
2026-04-11 13:00 36.20924 -93.98718 44305 ft 527 kts 110°
2026-04-11 13:01 36.17330 -93.85794 44302 ft 531 kts 110°
2026-04-11 13:02 36.14922 -93.77134 44303 ft 533 kts 110°
2026-04-11 13:02 36.12498 -93.68495 44295 ft 530 kts 110°
2026-04-11 13:03 36.10090 -93.59915 44294 ft 527 kts 111°
2026-04-11 13:03 36.07679 -93.51367 44297 ft 527 kts 111°
2026-04-11 13:04 36.05258 -93.42801 44302 ft 529 kts 111°
2026-04-11 13:04 36.02825 -93.34220 44308 ft 529 kts 111°
2026-04-11 13:05 36.00386 -93.25649 44309 ft 529 kts 111°
2026-04-11 13:05 35.97942 -93.17083 44306 ft 529 kts 111°
2026-04-11 13:06 35.95488 -93.08511 44308 ft 529 kts 111°
2026-04-11 13:06 35.93032 -92.99958 44303 ft 528 kts 111°
2026-04-11 13:07 35.90571 -92.91412 44302 ft 529 kts 111°
2026-04-11 13:07 35.88100 -92.82862 44299 ft 529 kts 111°
2026-04-11 13:08 35.85620 -92.74305 44300 ft 530 kts 111°
2026-04-11 13:08 35.83127 -92.65729 44313 ft 532 kts 111°
2026-04-11 13:09 35.80623 -92.57144 44326 ft 533 kts 111°
2026-04-11 13:09 35.78109 -92.48547 44333 ft 534 kts 111°
2026-04-11 13:10 35.75589 -92.39959 44336 ft 533 kts 111°
2026-04-11 13:10 35.73064 -92.31379 44339 ft 533 kts 111°
2026-04-11 13:11 35.70530 -92.22797 44332 ft 533 kts 111°
2026-04-11 13:11 35.67996 -92.14235 44332 ft 532 kts 111°
2026-04-11 13:12 35.65461 -92.05700 44320 ft 531 kts 111°
2026-04-11 13:12 35.62927 -91.97194 44325 ft 530 kts 112°
2026-04-11 13:13 35.60392 -91.88707 44333 ft 529 kts 112°
2026-04-11 13:13 35.57847 -91.80215 44336 ft 531 kts 112°
2026-04-11 13:14 35.55280 -91.71677 44338 ft 534 kts 112°
2026-04-11 13:14 35.52701 -91.63118 44340 ft 534 kts 112°
2026-04-11 13:15 35.50121 -91.54584 44344 ft 532 kts 112°
2026-04-11 13:15 35.47545 -91.46089 44340 ft 530 kts 112°
2026-04-11 13:16 35.44970 -91.37627 44340 ft 530 kts 112°
2026-04-11 13:16 35.42385 -91.29149 44347 ft 532 kts 112°
2026-04-11 13:17 35.39781 -91.20640 44346 ft 534 kts 112°
2026-04-11 13:17 35.37165 -91.12112 44349 ft 534 kts 112°
2026-04-11 13:18 35.34550 -91.03613 44342 ft 532 kts 112°
2026-04-11 13:18 35.31940 -90.95156 44332 ft 530 kts 112°
2026-04-11 13:19 35.29331 -90.86732 44326 ft 530 kts 112°
2026-04-11 13:19 35.26706 -90.78274 44324 ft 532 kts 112°
2026-04-11 13:20 35.24063 -90.69784 44321 ft 534 kts 112°
2026-04-11 13:20 35.21415 -90.61301 44326 ft 533 kts 112°
2026-04-11 13:21 35.18771 -90.52858 44318 ft 531 kts 112°
2026-04-11 13:21 35.16144 -90.44492 44318 ft 529 kts 112°
2026-04-11 13:22 35.13502 -90.36103 44325 ft 530 kts 112°
2026-04-11 13:22 35.10841 -90.27676 44322 ft 532 kts 112°
2026-04-11 13:23 35.08166 -90.19230 44325 ft 534 kts 112°
2026-04-11 13:23 35.05485 -90.10789 44332 ft 532 kts 112°
2026-04-11 13:24 35.02813 -90.02397 44334 ft 529 kts 112°
2026-04-11 13:24 34.99813 -89.94220 44334 ft 527 kts 119°
2026-04-11 13:25 34.96457 -89.86240 44328 ft 529 kts 118°
2026-04-11 13:25 34.93116 -89.78219 44339 ft 531 kts 118°
2026-04-11 13:26 34.89739 -89.70206 44338 ft 531 kts 118°
2026-04-11 13:26 34.86387 -89.62214 44334 ft 528 kts 118°
2026-04-11 13:27 34.83030 -89.54270 44326 ft 527 kts 118°
2026-04-11 13:27 34.79689 -89.46357 44323 ft 526 kts 118°
2026-04-11 13:28 34.76331 -89.38441 44323 ft 528 kts 118°
2026-04-11 13:28 34.72955 -89.30486 44326 ft 530 kts 118°
2026-04-11 13:29 34.69563 -89.22520 44333 ft 530 kts 118°
2026-04-11 13:29 34.66746 -89.15916 44336 ft 528 kts 118°
2026-04-11 13:30 34.62818 -89.06732 44333 ft 525 kts 119°
2026-04-11 13:30 34.59999 -89.00150 44332 ft 525 kts 119°
2026-04-11 13:31 34.56617 -88.92281 44330 ft 527 kts 119°
2026-04-11 13:31 34.53217 -88.84384 44341 ft 529 kts 119°
2026-04-11 13:32 34.49803 -88.76470 44345 ft 530 kts 119°
2026-04-11 13:32 34.46388 -88.68577 44348 ft 527 kts 119°
2026-04-11 13:33 34.42985 -88.60725 44344 ft 525 kts 119°
2026-04-11 13:33 34.39611 -88.52962 44347 ft 525 kts 119°
2026-04-11 13:34 34.36197 -88.45121 44343 ft 527 kts 119°
2026-04-11 13:34 34.32767 -88.37263 44339 ft 530 kts 119°
2026-04-11 13:35 34.29322 -88.29388 44334 ft 529 kts 119°
2026-04-11 13:35 34.25880 -88.21540 44336 ft 527 kts 119°
2026-04-11 13:36 34.22448 -88.13726 44337 ft 525 kts 119°
2026-04-11 13:36 34.19013 -88.05932 44336 ft 526 kts 119°
2026-04-11 13:37 34.15564 -87.98117 44341 ft 528 kts 119°
2026-04-11 13:37 34.12093 -87.90273 44338 ft 531 kts 119°
2026-04-11 13:38 34.08607 -87.82410 44342 ft 530 kts 120°
2026-04-11 13:38 34.05123 -87.74574 44351 ft 529 kts 120°
2026-04-11 13:39 34.01651 -87.66776 44348 ft 527 kts 120°
2026-04-11 13:39 33.98174 -87.58992 44361 ft 527 kts 120°
2026-04-11 13:40 33.94683 -87.51192 44371 ft 530 kts 120°
2026-04-11 13:40 33.91166 -87.43350 44380 ft 533 kts 120°
2026-04-11 13:41 33.87663 -87.35558 44384 ft 531 kts 120°
2026-04-11 13:41 33.84151 -87.27765 44381 ft 528 kts 120°
2026-04-11 13:42 33.80650 -87.20014 44377 ft 527 kts 120°